Epoch 2023 Feb. 25.0 TT = JDT 2460000.5 T 2023 Dec. 14.32245 TT Rudenko q 2.8261053 (2000.0) P Q n 0.05490824 Peri. 79.67479 +0.43325342 +0.89218362 a 6.8555822 Node 216.86210 -0.88756335 +0.39774789 e 0.5877658 Incl. 12.28786 -0.15659750 +0.21402103 P 18.0 >From 36 observations 2023 Apr. 24-June 24, mean residual 0".1.
m1 = 3.0 + 5 logΔ + 30.0 log r